Flag for Kuwait Weather past 2 weeks in Kuwait City, Kuwait

Now
84 °F

Clear.


Feels Like: 81 °F
Forecast: 58 / 70 °F
Wind: 13 mph from Southwest

Location: Kuwait International Airport

Current Time: Jan 30, 2015 at 3:03:33 PM

Latest Report: Jan 30, 2015 at 2:00 PM


Visibility: 4 mi

Pressure: 29.86 "Hg

Humidity: 18%

Dew point: 36 °F

Location of Kuwait CityLocation

Historic Weather in Kuwait City — Graph

°F

Kuwait City temperature yesterday

Maximum temperature yesterday: 82 °F (at 2:00 PM)
Minimum temperature yesterday: 59 °F (at 6:00 AM)
Average temperature yesterday: 68 °F

Past Weeks' High & Low Weather Summary

 TemperatureHumidityPressure
High82 °F (Jan 29, 2:00 PM)100% (Jan 25, 12:00 AM)30.27 "Hg (Jan 25, 12:00 AM)
Low34 °F (Jan 22, 6:00 AM)13% (Jan 29, 2:00 PM)29.83 "Hg (Jan 29, 2:00 PM)
Average57 °F58%30.11 "Hg
* Reported Jan 15 1:00 PM — Jan 30 1:00 PM, Kuwait City, Weather by CustomWeather, © 2014

Note: Actual official high and low records may vary slightly from our data, if they occured in-between our weather recording intervals... More about our weather records

Advertising

Kuwait City weather history for previous 24 hours

 ConditionsComfort  
Time TempWeatherWind HumidityBarometerVisibility
1:00 PM
Jan 30
81 °FSunny.15 mph20%29.89 "Hg10 mi
12:00 PM75 °FSunny.16 mph29%29.92 "Hg10 mi
11:00 AM73 °FSunny.14 mph33%29.95 "Hg10 mi
10:00 AM68 °FSunny.15 mph35%29.95 "Hg10 mi
9:00 AM64 °FSunny.12 mph40%29.98 "Hg10 mi
8:00 AM59 °FSunny.8 mph55%29.95 "Hg5 mi
7:00 AM55 °FSunny.6 mph77%29.92 "Hg4 mi
6:00 AM55 °FFog.3 mph88%29.92 "Hg3 mi
5:00 AM55 °FFog.5 mph88%29.89 "Hg3 mi
4:00 AM59 °FClear.10 mph88%29.89 "Hg4 mi
3:00 AM61 °FClear.5 mph83%29.89 "Hg4 mi
2:00 AM61 °FClear.6 mph83%29.89 "Hg4 mi
1:00 AM63 °FClear.6 mph83%29.92 "Hg4 mi
12:00 AM64 °FClear.9 mph78%29.92 "Hg4 mi
11:00 PM
Jan 29
64 °FClear.10 mph73%29.92 "Hg4 mi
10:00 PM64 °FClear.6 mph73%29.92 "Hg4 mi
9:00 PM66 °FClear.10 mph73%29.92 "Hg4 mi
8:00 PM68 °FClear.15 mph69%29.89 "Hg4 mi
7:00 PM68 °FClear.15 mph73%29.89 "Hg4 mi
6:00 PM70 °FClear.13 mph64%29.86 "Hg4 mi
5:00 PM72 °FClear.16 mph57%29.86 "Hg4 mi
4:00 PM77 °FClear.16 mph42%29.83 "Hg4 mi
3:00 PM79 °FClear.13 mph37%29.83 "Hg4 mi
Weather by CustomWeather, © 2014

See weather overviewHow to use our weather pages